EDT,Max TemperatureF,Mean TemperatureF,Min TemperatureF,Max Dew PointF,MeanDew PointF,Min DewpointF,Max Humidity, Mean Humidity, Min Humidity, Max Sea Level PressureIn, Mean Sea Level PressureIn, Min Sea Level PressureIn, Max VisibilityMiles, Mean VisibilityMiles, Min VisibilityMiles, Max Wind SpeedMPH, Mean Wind SpeedMPH, Max Gust SpeedMPH,PrecipitationIn, CloudCover, Events, WindDirDegrees
2013-5-1,73,66,59,64,56,53,81,80,72,30.31,30.21,30.13,10,9,3,15,8,23,0.00,7,Rain,26
2013-5-2,71,63,55,57,53,49,81,72,50,30.32,30.29,30.27,10,9,5,16,9,23,0.00,5,,40
2013-5-3,70,61,52,55,47,32,82,67,29,30.27,30.23,30.20,10,9,5,22,10,31,0.00,2,,39
2013-5-4,63,58,52,54,50,47,82,77,66,30.21,30.14,30.09,10,10,10,16,10,25,0.00,5,,40
2013-5-5,65,58,50,57,52,45,82,80,75,30.12,30.06,30.02,10,8,4,17,10,24,0.00,6,Rain,47
2013-5-6,73,66,60,66,59,54,81,78,62,30.03,29.96,29.90,10,9,5,20,11,31,0.06,4,Rain,93
2013-5-7,73,64,54,60,53,48,81,67,40,29.98,29.92,29.87,10,8,0,12,5,18,0.04,2,Rain,171
2013-5-8,75,64,52,57,53,47,82,66,42,30.03,29.98,29.95,10,10,10,12,4,16,0.00,2,,187
2013-5-9,79,70,60,60,55,48,81,60,34,30.08,30.03,29.98,10,9,0,10,3,,0.11,2,Rain,261
2013-5-10,86,72,58,64,55,44,81,58,23,30.09,30.04,29.99,10,10,10,12,3,18,0.00,0,,194
2013-5-11,83,76,68,70,65,62,80,70,52,30.02,29.91,29.81,10,10,10,20,8,25,0.00,1,,195
2013-5-12,78,69,58,66,52,35,80,54,26,30.02,29.86,29.79,10,10,10,13,7,18,0.00,1,,292
2013-5-13,66,59,52,40,30,14,58,35,14,30.17,30.07,30.01,10,10,10,14,7,21,0.00,3,,350
2013-5-14,69,56,42,44,27,6,81,40,9,30.26,30.19,30.13,10,10,10,13,3,22,0.00,0,,287
2013-5-15,86,72,58,64,51,44,74,51,27,30.14,30.02,29.90,10,10,10,17,8,22,0.00,1,,208
2013-5-16,87,76,65,65,54,28,80,50,12,29.98,29.93,29.90,10,10,10,14,7,20,0.00,0,,240
2013-5-17,86,76,66,66,59,52,78,57,31,30.15,30.05,29.98,10,10,10,12,4,17,0.00,1,,144
2013-5-18,78,72,66,70,64,59,80,78,71,30.21,30.15,30.11,10,9,2,10,5,17,0.53,2,Rain,142
2013-5-19,83,73,63,71,64,57,80,73,51,30.19,30.15,30.09,10,8,0,13,3,18,0.01,1,Rain,157
2013-5-20,78,73,68,70,66,62,81,79,70,30.16,30.12,30.08,10,10,1,15,6,22,1.10,1,,180
2013-5-21,81,74,68,72,67,62,81,77,67,30.08,30.04,29.99,10,10,7,14,5,22,0.00,1,,193
2013-5-22,81,75,69,72,68,63,81,77,62,30.06,30.02,29.96,10,10,2,13,7,21,0.65,1,Rain,197
2013-5-23,78,72,66,72,66,60,81,80,73,30.02,29.93,29.84,10,9,0,13,5,20,2.47,3,Rain,166
2013-5-24,74,66,58,67,57,43,81,69,38,30.16,29.92,29.79,10,9,0,21,5,26,0.12,2,,315
2013-5-25,73,59,45,50,37,25,80,52,18,30.25,30.19,30.15,10,10,10,13,4,21,0.00,0,,317
2013-5-26,73,60,47,51,41,28,81,55,19,30.27,30.21,30.17,10,10,10,12,2,,0.00,0,,341
2013-5-27,78,64,50,55,43,24,81,50,14,30.30,30.26,30.20,10,10,10,10,2,,0.00,0,,155
2013-5-28,83,71,59,66,58,52,80,62,41,30.29,30.24,30.19,10,10,10,10,4,17,0.00,0,,182
2013-5-29,84,74,65,69,63,59,80,67,46,30.28,30.23,30.19,10,10,7,14,5,18,0.00,1,,202
2013-5-30,86,74,63,72,64,57,84,69,42,30.30,30.25,30.19,10,10,7,12,5,,0.10,0,,199
2013-5-31,86,76,66,73,67,61,85,73,45,30.26,30.20,30.13,10,9,2,13,4,16,0.00,1,,181